TimeEST,TemperatureF,Dew PointF,Humidity,Sea Level PressureIn,VisibilityMPH,Wind Direction,Wind SpeedMPH,Gust SpeedMPH,PrecipitationIn,Events,Conditions,WindDirDegrees,DateUTC
12:15 AM,53.6,-9999,N/A,29.96,-9999.0,Calm,Calm,-,N/A,,Unknown,0,2013-01-02 05:15:00
12:55 AM,53.6,-9999,N/A,29.95,-9999.0,Calm,Calm,-,N/A,,Unknown,0,2013-01-02 05:55:00
1:15 AM,53.6,-9999,N/A,29.94,-9999.0,Calm,Calm,-,N/A,,Unknown,0,2013-01-02 06:15:00
1:35 AM,53.6,-9999,N/A,29.94,-9999.0,Calm,Calm,-,N/A,,Overcast,0,2013-01-02 06:35:00
1:55 AM,53.6,-9999,N/A,29.94,-9999.0,Calm,Calm,-,N/A,,Overcast,0,2013-01-02 06:55:00
2:15 AM,53.6,-9999,N/A,29.94,-9999.0,Calm,Calm,-,N/A,,Overcast,0,2013-01-02 07:15:00
2:35 AM,53.6,-9999,N/A,29.94,-9999.0,Calm,Calm,-,N/A,,Overcast,0,2013-01-02 07:35:00
3:15 AM,53.6,-9999,N/A,29.95,-9999.0,NNW,4.6,-,N/A,,Overcast,340,2013-01-02 08:15:00
3:35 AM,53.6,-9999,N/A,29.96,-9999.0,North,4.6,-,N/A,,Overcast,350,2013-01-02 08:35:00
3:55 AM,51.8,-9999,N/A,29.94,-9999.0,NNE,3.5,-,N/A,,Overcast,30,2013-01-02 08:55:00
4:15 AM,51.8,-9999,N/A,29.93,-9999.0,Calm,Calm,-,N/A,,Overcast,0,2013-01-02 09:15:00
4:35 AM,51.8,-9999,N/A,29.94,-9999.0,Calm,Calm,-,N/A,,Overcast,0,2013-01-02 09:35:00
5:15 AM,51.8,-9999,N/A,29.95,-9999.0,North,4.6,-,N/A,,Overcast,350,2013-01-02 10:15:00
5:35 AM,51.8,-9999,N/A,29.97,-9999.0,NNW,5.8,-,N/A,,Overcast,330,2013-01-02 10:35:00
5:55 AM,51.8,-9999,N/A,29.97,-9999.0,North,3.5,-,N/A,,Overcast,360,2013-01-02 10:55:00
6:15 AM,51.8,-9999,N/A,29.98,-9999.0,NNW,4.6,-,N/A,,Overcast,330,2013-01-02 11:15:00
6:35 AM,51.8,-9999,N/A,29.99,-9999.0,NNW,5.8,-,N/A,,Overcast,340,2013-01-02 11:35:00
6:55 AM,51.8,-9999,N/A,29.99,-9999.0,North,3.5,-,N/A,,Unknown,360,2013-01-02 11:55:00
7:15 AM,51.8,-9999,N/A,30.01,-9999.0,NNW,3.5,-,N/A,,Unknown,330,2013-01-02 12:15:00
7:35 AM,51.8,-9999,N/A,30.02,-9999.0,NNW,3.5,-,N/A,,Overcast,330,2013-01-02 12:35:00
7:55 AM,51.8,-9999,N/A,30.03,-9999.0,NW,4.6,-,N/A,,Overcast,320,2013-01-02 12:55:00
8:15 AM,51.8,-9999,N/A,30.03,-9999.0,NNW,4.6,-,N/A,,Overcast,330,2013-01-02 13:15:00
8:35 AM,51.8,-9999,N/A,30.04,-9999.0,NNW,3.5,-,N/A,,Overcast,340,2013-01-02 13:35:00
8:55 AM,51.8,-9999,N/A,30.05,-9999.0,NNW,3.5,-,N/A,,Overcast,330,2013-01-02 13:55:00
9:15 AM,51.8,-9999,N/A,30.05,-9999.0,North,5.8,-,N/A,,Overcast,350,2013-01-02 14:15:00
9:35 AM,51.8,-9999,N/A,30.06,-9999.0,North,6.9,-,N/A,,Overcast,360,2013-01-02 14:35:00
10:15 AM,53.6,-9999,N/A,30.08,-9999.0,Calm,Calm,-,N/A,,Overcast,0,2013-01-02 15:15:00
10:35 AM,53.6,-9999,N/A,30.08,-9999.0,NNE,3.5,-,N/A,,Overcast,30,2013-01-02 15:35:00
10:55 AM,53.6,-9999,N/A,30.08,-9999.0,Calm,Calm,-,N/A,,Overcast,0,2013-01-02 15:55:00
11:15 AM,53.6,-9999,N/A,30.08,-9999.0,NE,4.6,-,N/A,,Overcast,50,2013-01-02 16:15:00
11:35 AM,55.4,-9999,N/A,30.08,-9999.0,ENE,5.8,-,N/A,,Overcast,60,2013-01-02 16:35:00
11:55 AM,55.4,55.4,100,30.07,-9999.0,ENE,5.8,-,N/A,,Overcast,60,2013-01-02 16:55:00
12:15 PM,55.4,55.4,100,30.06,-9999.0,North,3.5,-,N/A,,Unknown,10,2013-01-02 17:15:00
12:35 PM,55.4,55.4,100,30.06,-9999.0,Calm,Calm,-,N/A,,Overcast,0,2013-01-02 17:35:00
12:55 PM,57.2,55.4,94,30.05,-9999.0,ESE,3.5,-,N/A,,Overcast,110,2013-01-02 17:55:00
1:15 PM,55.4,55.4,100,30.05,-9999.0,Calm,Calm,-,N/A,,Overcast,0,2013-01-02 18:15:00
1:35 PM,57.2,55.4,94,30.05,-9999.0,Calm,Calm,-,N/A,,Unknown,0,2013-01-02 18:35:00
1:55 PM,57.2,53.6,88,30.04,-9999.0,ESE,3.5,-,N/A,,Overcast,110,2013-01-02 18:55:00
2:15 PM,57.2,53.6,88,30.04,-9999.0,NE,5.8,-,N/A,,Overcast,40,2013-01-02 19:15:00
2:35 PM,57.2,53.6,88,30.04,-9999.0,NE,3.5,-,N/A,,Unknown,50,2013-01-02 19:35:00
3:15 PM,59.0,51.8,77,30.05,-9999.0,East,3.5,-,N/A,,Scattered Clouds,80,2013-01-02 20:15:00
3:35 PM,59.0,53.6,82,30.05,-9999.0,East,4.6,-,N/A,,Scattered Clouds,80,2013-01-02 20:35:00
3:55 PM,60.8,51.8,72,30.05,-9999.0,NE,4.6,-,N/A,,Clear,50,2013-01-02 20:55:00
4:15 PM,59.0,51.8,77,30.05,-9999.0,East,5.8,-,N/A,,Scattered Clouds,80,2013-01-02 21:15:00
4:35 PM,57.2,51.8,82,30.06,-9999.0,East,6.9,-,N/A,,Clear,90,2013-01-02 21:35:00
4:55 PM,55.4,51.8,88,30.07,-9999.0,East,3.5,-,N/A,,Unknown,80,2013-01-02 21:55:00
5:15 PM,55.4,51.8,88,30.08,-9999.0,Calm,Calm,-,N/A,,Unknown,0,2013-01-02 22:15:00
5:35 PM,53.6,51.8,94,30.08,-9999.0,Calm,Calm,-,N/A,,Unknown,0,2013-01-02 22:35:00
6:15 PM,53.6,53.6,100,30.09,-9999.0,East,3.5,-,N/A,,Unknown,80,2013-01-02 23:15:00
6:35 PM,53.6,53.6,100,30.10,-9999.0,East,3.5,-,N/A,,Unknown,100,2013-01-02 23:35:00
6:55 PM,53.6,53.6,100,30.10,-9999.0,East,4.6,-,N/A,,Mostly Cloudy,100,2013-01-02 23:55:00
7:15 PM,53.6,53.6,100,30.10,-9999.0,East,5.8,-,N/A,,Overcast,80,2013-01-03 00:15:00
7:35 PM,53.6,53.6,100,30.10,-9999.0,ENE,5.8,-,N/A,,Overcast,70,2013-01-03 00:35:00
7:55 PM,53.6,53.6,100,30.11,-9999.0,ENE,9.2,-,N/A,,Overcast,70,2013-01-03 00:55:00
8:15 PM,51.8,51.8,100,30.12,-9999.0,East,8.1,-,N/A,,Overcast,80,2013-01-03 01:15:00
8:35 PM,51.8,51.8,100,30.13,-9999.0,East,6.9,-,N/A,,Overcast,80,2013-01-03 01:35:00
8:55 PM,51.8,51.8,100,30.13,-9999.0,East,5.8,-,N/A,,Overcast,90,2013-01-03 01:55:00
9:15 PM,51.8,51.8,100,30.15,-9999.0,East,4.6,-,N/A,,Unknown,90,2013-01-03 02:15:00
9:35 PM,51.8,51.8,100,30.16,-9999.0,Calm,Calm,-,N/A,,Unknown,0,2013-01-03 02:35:00
9:55 PM,51.8,51.8,100,30.17,-9999.0,ENE,4.6,-,N/A,,Overcast,70,2013-01-03 02:55:00
10:15 PM,51.8,51.8,100,30.16,-9999.0,ENE,4.6,-,N/A,,Overcast,60,2013-01-03 03:15:00
10:35 PM,51.8,51.8,100,30.16,-9999.0,East,4.6,-,N/A,,Overcast,80,2013-01-03 03:35:00
10:55 PM,50.0,50.0,100,30.16,-9999.0,NE,5.8,-,N/A,,Overcast,40,2013-01-03 03:55:00
11:15 PM,50.0,50.0,100,30.16,-9999.0,ENE,8.1,-,N/A,,Overcast,60,2013-01-03 04:15:00
11:35 PM,50.0,50.0,100,30.16,-9999.0,ENE,5.8,-,N/A,,Overcast,60,2013-01-03 04:35:00
11:55 PM,50.0,50.0,100,30.14,-9999.0,East,6.9,-,N/A,,Overcast,90,2013-01-03 04:55:00